This demonstration page uses our WeatherBlox Daily Observations layout. Learn more.

Left ArrowRight Arrow

39.51506, -84.39828

Hourly Observations for September 29, 2015

Temp ( °F °C ) Dew Point ( °F °C ) Humidity (%) Winds ( mph kmh ) Pressure ( in mb ) Visibility ( mi km ) Precip ( " mm )
12:15 am 00:15 Cloudy 69 20.8 64 18 84 84 Calm 29.97 1015 10 16.0934 0 0
12:35 am 00:35 Mostly Cloudy 69 20.8 65 18.1 85 85 Calm 29.97 1015 10 16.0934 0 0
12:55 am 00:55 Mostly Cloudy 69 20.8 65 18.2 85 85 Calm 29.97 1015 10 16.0934 0 0
1:15 am 01:15 Cloudy 69 20.8 65 18.1 85 85 Calm 29.97 1015 10 16.0934 0 0
1:35 am 01:35 Cloudy 69 20.8 65 18.2 85 85 Calm 29.97 1015 10 16.0934 0 0
1:55 am 01:55 Cloudy 69 20.8 65 18.3 86 86 Calm 29.97 1015 10 16.0934 0 0
2:15 am 02:15 Cloudy 69 20.8 65 18.3 86 86 Calm 29.97 1015 10 16.0934 0 0
2:35 am 02:35 Cloudy 69 20.8 65 18.5 87 87 Calm 29.94 1014 10 16.0934 0 0
2:55 am 02:55 Mostly Cloudy 69 20.8 65 18.5 87 87 Calm 29.94 1014 10 16.0934 0 0
3:15 am 03:15 Partly Cloudy 69 20.8 65 18.4 86 86 Calm 29.94 1014 10 16.0934 0 0
3:35 am 03:35 Clear 69 20.8 65 18.5 87 87 Calm 29.94 1014 10 16.0934 0 0
3:55 am 03:55 Partly Cloudy 69 20.8 65 18.6 87 87 Calm 29.94 1014 10 16.0934 0 0
4:15 am 04:15 Mostly Cloudy 69 20.8 65 18.6 87 87 Calm 29.91 1013 10 16.0934 0 0
8:55 am 08:55 Mostly Cloudy with Rain 69 20.8 66 18.9 89 89 Calm 29.91 1013 10 16.0934 0 0
9:35 am 09:35 Partly Cloudy with Drizzle 69 20.8 66 18.9 89 89 Calm 29.91 1013 10 16.0934 0 0
9:55 am 09:55 Partly Cloudy with Light Rain 69 20.8 66 18.8 88 88 Calm 29.94 1014 10 16.0934 0 0
10:15 am 10:15 Sunny with Light Rain 70 21.2 67 19.2 88 88 Calm 29.94 1014 7 11.26538 0 0
10:35 am 10:35 Partly Cloudy with Light Rain 70 21.1 67 19.3 90 90 Calm 29.91 1013 10 16.0934 0 0
10:55 am 10:55 Partly Cloudy with Rain 71 21.7 68 19.9 90 90 Calm 29.91 1013 10 16.0934 0 0
11:15 am 11:15 Mostly Cloudy with Light Rain 72 22.3 69 20.5 90 90 Calm 29.94 1014 7 11.26538 0 0
11:35 am 11:35 Cloudy with Light Rain 72 22.3 69 20.5 90 90 Calm 29.91 1013 5 8.0467 0 0
11:55 am 11:55 Cloudy with Light Rain 72 22.3 69 20.5 90 90 Calm 29.91 1013 7 11.26538 0 0
12:15 pm 12:15 Cloudy with Light Rain 73 22.7 70 20.9 90 90 Calm 29.91 1013 7 11.26538 0 0
12:35 pm 12:35 Cloudy with Light Rain 74 23.6 71 21.6 89 89 Calm 29.91 1013 5 8.0467 0 0
12:55 pm 12:55 Cloudy with Light Rain 74 23.6 71 21.5 88 88 Calm 29.91 1013 10 16.0934 0 0
1:15 pm 13:15 Cloudy with Light Rain 74 23.6 70 21.2 86 86 Calm 29.91 1013 10 16.0934 0 0
1:35 pm 13:35 Cloudy with Light Rain 74 23.6 70 21.2 86 86 N 6 9 29.91 1013 10 16.0934 0 0
1:55 pm 13:55 Cloudy with Light Rain 74 23.2 69 20.8 86 86 Calm 29.91 1013 7 11.26538 0 0
2:15 pm 14:15 Cloudy with Rain 73 22.6 69 20.6 89 89 NE 3 6 29.88 1012 7 11.26538 0 0
2:35 pm 14:35 Cloudy with Rain 72 22.1 68 19.9 87 87 NE 8 13 29.88 1012 7 11.26538 0 0
2:55 pm 14:55 Cloudy with Rain 71 21.7 67 19.6 88 88 NE 5 7 29.88 1012 5 8.0467 0 0
3:15 pm 15:15 Cloudy with Rain 71 21.8 67 19.7 88 88 Calm 29.88 1012 5 8.0467 0 0
3:35 pm 15:35 Cloudy with Rain 72 22.3 68 20.2 88 88 Calm 29.88 1012 4 6.43736 0 0
3:55 pm 15:55 Cloudy with Light Rain 72 22.3 69 20.4 89 89 Calm 29.88 1012 5 8.0467 0 0
4:15 pm 16:15 Cloudy with Light Rain 72 22.3 69 20.4 89 89 NE 5 7 29.88 1012 5 8.0467 0 0
4:35 pm 16:35 Cloudy with Light Rain 71 21.6 67 19.5 88 88 NNE 6 9 29.85 1011 7 11.26538 0 0
4:55 pm 16:55 Cloudy with Light Rain 71 21.5 67 19.5 88 88 Calm 29.85 1011 7 11.26538 0 0
5:15 pm 17:15 Cloudy with Light Rain 71 21.4 67 19.4 88 88 Calm 29.85 1011 5 8.0467 0 0
5:35 pm 17:35 Cloudy with Light Rain 70 21 66 19 88 88 N 5 7 29.85 1011 7 11.26538 0 0
5:55 pm 17:55 Cloudy with Light Rain 69 20.8 66 18.9 89 89 Calm 29.85 1011 7 11.26538 0 0
6:15 pm 18:15 Cloudy with Light Rain 69 20.8 66 18.8 88 88 Calm 29.85 1011 7 11.26538 0 0
6:35 pm 18:35 Cloudy with Light Rain 69 20.8 66 18.7 88 88 Calm 29.85 1011 10 16.0934 0 0
6:55 pm 18:55 Cloudy with Light Rain 69 20.8 65 18.6 87 87 NNE 7 11 29.85 1011 10 16.0934 0 0
7:15 pm 19:15 Cloudy with Rain 69 20.8 65 18.5 87 87 NNE 5 7 29.85 1011 10 16.0934 0 0
7:35 pm 19:35 Mostly Cloudy with Drizzle 69 20.8 65 18.5 87 87 NNE 6 9 29.85 1011 10 16.0934 0 0
7:55 pm 19:55 Clear 69 20.8 65 18.6 87 87 NNE 3 6 29.85 1011 10 16.0934 0 0
8:15 pm 20:15 Clear 69 20.8 66 18.8 88 88 NNE 6 9 29.85 1011 10 16.0934 0 0
8:35 pm 20:35 Partly Cloudy with Drizzle 69 20.8 66 18.7 88 88 NNE 7 11 29.85 1011 10 16.0934 0 0
8:55 pm 20:55 Mostly Cloudy 69 20.8 66 18.7 88 88 NNE 7 11 29.88 1012 10 16.0934 0 0
9:15 pm 21:15 Cloudy 69 20.8 65 18.6 87 87 N 3 6 29.88 1012 10 16.0934 0 0
9:35 pm 21:35 Cloudy 69 20.8 66 18.7 88 88 NNE 6 9 29.88 1012 10 16.0934 0 0
9:55 pm 21:55 Cloudy with Rain 69 20.8 66 18.7 88 88 NNE 5 7 29.88 1012 10 16.0934 0 0
10:15 pm 22:15 Cloudy with Light Rain 69 20.8 66 18.7 88 88 NNE 3 6 29.88 1012 7 11.26538 0 0
10:35 pm 22:35 Cloudy with Light Rain 69 20.8 66 18.9 89 89 N 5 7 29.88 1012 7 11.26538 0 0
10:55 pm 22:55 Cloudy with Drizzle 69 20.8 66 19 90 90 N 7 11 29.88 1012 7 11.26538 0 0
11:15 pm 23:15 Cloudy 69 20.8 66 19 90 90 NNE 8 13 29.88 1012 7 11.26538 0 0
11:35 pm 23:35 Cloudy 69 20.8 65 18.5 87 87 NNE 13 20 29.88 1012 7 11.26538 0 0
11:55 pm 23:55 Cloudy 69 20.8 65 18.4 86 86 N 10 17 29.91 1013 7 11.26538 0 0

Powered by AerisWeather